| time (UTC) | temp C | wind direction | speed KPH | gust KPH | rain 1hr cm | rain 24hr cm | rain mn cm | humidity % | barometer mb |
| 20260508004516 | 27 | 249 | 20.9 | 38.6 | 0.00 | 0.00 | 0.00 | 13 | 1007.7 |
| 20260508004006 | 27 | 271 | 16.1 | 29.0 | 0.00 | 0.00 | 0.00 | 12 | 1007.8 |
| 20260508003507 | 27 | 262 | 16.1 | 33.8 | 0.00 | 0.00 | 0.00 | 12 | 1007.8 |
| 20260508003006 | 27 | 296 | 16.1 | 35.4 | 0.00 | 0.00 | 0.00 | 12 | 1007.8 |
| 20260508002507 | 27 | 284 | 16.1 | 40.2 | 0.00 | 0.00 | 0.00 | 10 | 1007.8 |
| 20260508002011 | 27 | 263 | 24.1 | 40.2 | 0.00 | 0.00 | 0.00 | 11 | 1007.6 |
| 20260508001505 | 27 | 271 | 20.9 | 35.4 | 0.00 | 0.00 | 0.00 | 10 | 1007.7 |
| 20260508001004 | 27 | 294 | 17.7 | 40.2 | 0.00 | 0.00 | 0.00 | 11 | 1007.6 |
| 20260508000505 | 28 | 265 | 22.5 | 40.2 | 0.00 | 0.00 | 0.00 | 10 | 1007.6 |
| 20260508000004 | 28 | 281 | 8.0 | 30.6 | 0.00 | 0.00 | 0.00 | 12 | 1007.4 |
| 20260507235507 | 28 | 286 | 16.1 | 33.8 | 0.00 | 0.00 | 0.00 | 12 | 1007.5 |
| 20260507235005 | 28 | 269 | 20.9 | 33.8 | 0.00 | 0.00 | 0.00 | 11 | 1007.6 |
| 20260507234503 | 27 | 286 | 19.3 | 32.2 | 0.00 | 0.00 | 0.00 | 12 | 1007.5 |
| 20260507234002 | 28 | 282 | 17.7 | 37.0 | 0.00 | 0.00 | 0.00 | 12 | 1007.7 |
| 20260507233502 | 28 | 240 | 17.7 | 37.0 | 0.00 | 0.00 | 0.00 | 12 | 1007.7 |
| 20260507233002 | 28 | 263 | 22.5 | 38.6 | 0.00 | 0.00 | 0.00 | 11 | 1007.6 |
| 20260507232501 | 28 | 277 | 19.3 | 38.6 | 0.00 | 0.00 | 0.00 | 11 | 1007.5 |
| 20260507232001 | 28 | 237 | 14.5 | 32.2 | 0.00 | 0.00 | 0.00 | 11 | 1007.7 |
| 20260507231501 | 28 | 194 | 17.7 | 32.2 | 0.00 | 0.00 | 0.00 | 11 | 1007.6 |
| 20260507231001 | 28 | 175 | 11.3 | 30.6 | 0.00 | 0.00 | 0.00 | 11 | 1007.6 |
| 20260507230600 | 28 | 217 | 14.5 | 25.7 | 0.00 | 0.00 | 0.00 | 12 | 1007.6 |
| 20260507230101 | 28 | 250 | 11.3 | 38.6 | 0.00 | 0.00 | 0.00 | 12 | 1007.5 |
| 20260507225559 | 28 | 262 | 20.9 | 38.6 | 0.00 | 0.00 | 0.00 | 11 | 1007.7 |
| 20260507225100 | 28 | 188 | 16.1 | 27.4 | 0.00 | 0.00 | 0.00 | 12 | 1007.7 |
| 20260507224606 | 28 | 303 | 8.0 | 24.1 | 0.00 | 0.00 | 0.00 | 12 | 1007.6 |
| 20260507224058 | 28 | 255 | 14.5 | 32.2 | 0.00 | 0.00 | 0.00 | 12 | 1007.8 |
| 20260507223602 | 28 | 279 | 17.7 | 32.2 | 0.00 | 0.00 | 0.00 | 12 | 1007.8 |
| 20260507223059 | 28 | 265 | 16.1 | 32.2 | 0.00 | 0.00 | 0.00 | 12 | 1007.8 |
| 20260507222559 | 28 | 240 | 12.9 | 32.2 | 0.00 | 0.00 | 0.00 | 12 | 1007.9 |
| 20260507222057 | 28 | 219 | 4.8 | 32.2 | 0.00 | 0.00 | 0.00 | 12 | 1007.9 |
| 20260507221555 | 28 | 209 | 14.5 | 32.2 | 0.00 | 0.00 | 0.00 | 12 | 1008.0 |
| 20260507221055 | 28 | 261 | 12.9 | 25.7 | 0.00 | 0.00 | 0.00 | 11 | 1008.0 |
| 20260507220554 | 28 | 206 | 9.7 | 24.1 | 0.00 | 0.00 | 0.00 | 12 | 1008.1 |
| 20260507220054 | 28 | 256 | 12.9 | 27.4 | 0.00 | 0.00 | 0.00 | 13 | 1008.2 |
| 20260507215557 | 28 | 192 | 9.7 | 35.4 | 0.00 | 0.00 | 0.00 | 13 | 1008.2 |
| 20260507215053 | 28 | 217 | 19.3 | 35.4 | 0.00 | 0.00 | 0.00 | 13 | 1008.3 |
| 20260507214553 | 28 | 197 | 6.4 | 22.5 | 0.00 | 0.00 | 0.00 | 13 | 1008.3 |
| 20260507214053 | 28 | 306 | 16.1 | 25.7 | 0.00 | 0.00 | 0.00 | 13 | 1008.4 |
| 20260507213550 | 28 | 191 | 6.4 | 17.7 | 0.00 | 0.00 | 0.00 | 14 | 1008.5 |
| 20260507213051 | 28 | 259 | 6.4 | 24.1 | 0.00 | 0.00 | 0.00 | 14 | 1008.6 |
| 20260507212550 | 28 | 219 | 9.7 | 22.5 | 0.00 | 0.00 | 0.00 | 15 | 1008.6 |
| 20260507212048 | 27 | 189 | 9.7 | 27.4 | 0.00 | 0.00 | 0.00 | 15 | 1008.6 |
| 20260507211551 | 28 | 241 | 16.1 | 29.0 | 0.00 | 0.00 | 0.00 | 15 | 1008.7 |
| 20260507211047 | 27 | 217 | 14.5 | 24.1 | 0.00 | 0.00 | 0.00 | 15 | 1008.7 |
| 20260507210546 | 27 | 192 | 9.7 | 27.4 | 0.00 | 0.00 | 0.00 | 16 | 1008.7 |
| 20260507210111 | 27 | 246 | 16.1 | 27.4 | 0.00 | 0.00 | 0.00 | 15 | 1008.8 |
| 20260507205545 | 27 | 221 | 11.3 | 24.1 | 0.00 | 0.00 | 0.00 | 15 | 1008.7 |
| 20260507205048 | 27 | 215 | 9.7 | 27.4 | 0.00 | 0.00 | 0.00 | 15 | 1009.0 |
| 20260507204546 | 27 | 229 | 8.0 | 25.7 | 0.00 | 0.00 | 0.00 | 15 | 1009.0 |
| 20260507204042 | 27 | 259 | 12.9 | 27.4 | 0.00 | 0.00 | 0.00 | 14 | 1009.2 |
| 20260507203542 | 27 | 213 | 12.9 | 27.4 | 0.00 | 0.00 | 0.00 | 14 | 1009.2 |
| 20260507203042 | 27 | 197 | 14.5 | 22.5 | 0.00 | 0.00 | 0.00 | 15 | 1009.2 |
| 20260507202541 | 27 | 198 | 9.7 | 22.5 | 0.00 | 0.00 | 0.00 | 15 | 1009.3 |
| 20260507202040 | 27 | 220 | 16.1 | 22.5 | 0.00 | 0.00 | 0.00 | 16 | 1009.5 |
| 20260507201539 | 27 | 220 | 12.9 | 24.1 | 0.00 | 0.00 | 0.00 | 16 | 1009.5 |
| 20260507201039 | 26 | 271 | 9.7 | 24.1 | 0.00 | 0.00 | 0.00 | 16 | 1009.5 |
| 20260507200538 | 26 | 196 | 14.5 | 22.5 | 0.00 | 0.00 | 0.00 | 16 | 1009.6 |
| 20260507200052 | 26 | 222 | 9.7 | 29.0 | 0.00 | 0.00 | 0.00 | 15 | 1009.6 |
| 20260507195539 | 26 | 196 | 17.7 | 29.0 | 0.00 | 0.00 | 0.00 | 16 | 1009.6 |
| 20260507195037 | 26 | 171 | 14.5 | 27.4 | 0.00 | 0.00 | 0.00 | 16 | 1009.7 |
| 20260507194536 | 26 | 200 | 14.5 | 24.1 | 0.00 | 0.00 | 0.00 | 16 | 1009.8 |
| 20260507194035 | 26 | 209 | 14.5 | 27.4 | 0.00 | 0.00 | 0.00 | 16 | 1009.8 |
| 20260507193535 | 26 | 213 | 17.7 | 30.6 | 0.00 | 0.00 | 0.00 | 16 | 1009.8 |
| 20260507193101 | 26 | 165 | 9.7 | 25.7 | 0.00 | 0.00 | 0.00 | 15 | 1009.9 |
| 20260507192532 | 25 | 200 | 14.5 | 25.7 | 0.00 | 0.00 | 0.00 | 16 | 1010.0 |
| 20260507192032 | 25 | 194 | 14.5 | 25.7 | 0.00 | 0.00 | 0.00 | 15 | 1010.0 |
| 20260507191532 | 26 | 276 | 9.7 | 22.5 | 0.00 | 0.00 | 0.00 | 15 | 1010.1 |
| 20260507191032 | 25 | 242 | 14.5 | 22.5 | 0.00 | 0.00 | 0.00 | 15 | 1010.3 |
| 20260507190531 | 25 | 200 | 11.3 | 25.7 | 0.00 | 0.00 | 0.00 | 15 | 1010.3 |
| 20260507190034 | 26 | 209 | 14.5 | 32.2 | 0.00 | 0.00 | 0.00 | 15 | 1010.5 |
| 20260507185529 | 25 | 227 | 16.1 | 25.7 | 0.00 | 0.00 | 0.00 | 15 | 1010.5 |
| 20260507185028 | 25 | 189 | 16.1 | 27.4 | 0.00 | 0.00 | 0.00 | 15 | 1010.7 |
| 20260507184527 | 25 | 221 | 11.3 | 33.8 | 0.00 | 0.00 | 0.00 | 16 | 1010.7 |
| 20260507184026 | 25 | 211 | 12.9 | 24.1 | 0.00 | 0.00 | 0.00 | 16 | 1010.8 |
| 20260507183530 | 25 | 242 | 16.1 | 24.1 | 0.00 | 0.00 | 0.00 | 16 | 1010.8 |
| 20260507183036 | 25 | 194 | 14.5 | 24.1 | 0.00 | 0.00 | 0.00 | 15 | 1010.9 |
| 20260507182526 | 25 | 259 | 12.9 | 25.7 | 0.00 | 0.00 | 0.00 | 16 | 1011.0 |
| 20260507182026 | 25 | 275 | 9.7 | 25.7 | 0.00 | 0.00 | 0.00 | 16 | 1010.9 |
| 20260507181525 | 25 | 193 | 11.3 | 20.9 | 0.00 | 0.00 | 0.00 | 16 | 1010.9 |
| 20260507181028 | 25 | 223 | 11.3 | 19.3 | 0.00 | 0.00 | 0.00 | 16 | 1011.0 |
| 20260507180526 | 24 | 231 | 3.2 | 16.1 | 0.00 | 0.00 | 0.00 | 22 | 1011.0 |
| 20260507180026 | 24 | 184 | 6.4 | 16.1 | 0.00 | 0.00 | 0.00 | 23 | 1011.0 |
| 20260507175523 | 25 | 328 | 3.2 | 14.5 | 0.00 | 0.00 | 0.00 | 22 | 1011.0 |
| 20260507175026 | 25 | 188 | 6.4 | 17.7 | 0.00 | 0.00 | 0.00 | 22 | 1011.1 |
| 20260507174521 | 26 | 236 | 8.0 | 17.7 | 0.00 | 0.00 | 0.00 | 23 | 1011.1 |
| 20260507174022 | 25 | 31 | 4.8 | 17.7 | 0.00 | 0.00 | 0.00 | 23 | 1011.1 |
| 20260507173520 | 25 | 350 | 4.8 | 12.9 | 0.00 | 0.00 | 0.00 | 24 | 1011.2 |
| 20260507173019 | 23 | 346 | 1.6 | 12.9 | 0.00 | 0.00 | 0.00 | 26 | 1011.3 |
| 20260507172518 | 23 | 333 | 4.8 | 20.9 | 0.00 | 0.00 | 0.00 | 27 | 1011.3 |
| 20260507172018 | 23 | 293 | 9.7 | 20.9 | 0.00 | 0.00 | 0.00 | 26 | 1011.4 |
| 20260507171516 | 23 | 324 | 6.4 | 17.7 | 0.00 | 0.00 | 0.00 | 25 | 1011.4 |
| 20260507171018 | 23 | 298 | 8.0 | 17.7 | 0.00 | 0.00 | 0.00 | 25 | 1011.4 |
| 20260507170516 | 23 | 234 | 3.2 | 16.1 | 0.00 | 0.00 | 0.00 | 27 | 1011.4 |
| 20260507170014 | 22 | 339 | 4.8 | 14.5 | 0.00 | 0.00 | 0.00 | 27 | 1011.4 |
| 20260507165514 | 22 | 244 | 4.8 | 16.1 | 0.00 | 0.00 | 0.00 | 28 | 1011.5 |
| 20260507165018 | 22 | 229 | 9.7 | 17.7 | 0.00 | 0.00 | 0.00 | 27 | 1011.6 |
| 20260507164613 | 22 | 255 | 8.0 | 17.7 | 0.00 | 0.00 | 0.00 | 28 | 1011.6 |
| 20260507164012 | 22 | 236 | 8.0 | 24.1 | 0.00 | 0.00 | 0.00 | 28 | 1011.7 |
| 20260507163515 | 22 | 194 | 9.7 | 24.1 | 0.00 | 0.00 | 0.00 | 30 | 1011.6 |
| 20260507163012 | 21 | 351 | 4.8 | 19.3 | 0.00 | 0.00 | 0.00 | 30 | 1011.7 |
| 20260507162513 | 21 | 211 | 9.7 | 22.5 | 0.00 | 0.00 | 0.00 | 31 | 1011.7 |
| 20260507162009 | 21 | 265 | 14.5 | 22.5 | 0.00 | 0.00 | 0.00 | 32 | 1011.7 |
| 20260507161512 | 20 | 251 | 12.9 | 20.9 | 0.00 | 0.00 | 0.00 | 33 | 1011.5 |
| 20260507161006 | 20 | 246 | 12.9 | 27.4 | 0.00 | 0.00 | 0.00 | 34 | 1011.6 |
| 20260507160507 | 20 | 249 | 16.1 | 32.2 | 0.00 | 0.00 | 0.00 | 34 | 1011.6 |
| 20260507160008 | 20 | 247 | 12.9 | 25.7 | 0.00 | 0.00 | 0.00 | 35 | 1011.7 |
| 20260507155504 | 20 | 198 | 14.5 | 25.7 | 0.00 | 0.00 | 0.00 | 35 | 1011.7 |
| 20260507155004 | 20 | 285 | 12.9 | 22.5 | 0.00 | 0.00 | 0.00 | 36 | 1011.6 |
| 20260507154503 | 20 | 25 | 9.7 | 20.9 | 0.00 | 0.00 | 0.00 | 36 | 1011.6 |
| 20260507154003 | 19 | 265 | 4.8 | 19.3 | 0.00 | 0.00 | 0.00 | 37 | 1011.6 |
| 20260507153506 | 19 | 261 | 6.4 | 17.7 | 0.00 | 0.00 | 0.00 | 37 | 1011.7 |
| 20260507153009 | 19 | 273 | 11.3 | 22.5 | 0.00 | 0.00 | 0.00 | 38 | 1011.7 |
| 20260507152502 | 19 | 277 | 11.3 | 22.5 | 0.00 | 0.00 | 0.00 | 38 | 1011.7 |
| 20260507152002 | 18 | 269 | 11.3 | 22.5 | 0.00 | 0.00 | 0.00 | 39 | 1011.7 |
| 20260507151504 | 18 | 283 | 14.5 | 22.5 | 0.00 | 0.00 | 0.00 | 39 | 1011.8 |
| 20260507151001 | 18 | 258 | 12.9 | 20.9 | 0.00 | 0.00 | 0.00 | 39 | 1011.8 |
| 20260507150501 | 18 | 276 | 11.3 | 22.5 | 0.00 | 0.00 | 0.00 | 40 | 1011.8 |
| 20260507150101 | 18 | 301 | 12.9 | 24.1 | 0.00 | 0.00 | 0.00 | 41 | 1011.8 |
| 20260507150001 | 18 | 238 | 12.9 | 27.4 | 0.00 | 0.00 | 0.00 | 41 | 1011.9 |
| 20260507145600 | 18 | 263 | 11.3 | 27.4 | 0.00 | 0.00 | 0.00 | 41 | 1011.9 |
| 20260507145100 | 18 | 260 | 6.4 | 19.3 | 0.00 | 0.00 | 0.00 | 41 | 1011.9 |
| 20260507144606 | 17 | 268 | 11.3 | 24.1 | 0.00 | 0.00 | 0.00 | 42 | 1011.8 |
| 20260507144100 | 17 | 263 | 12.9 | 22.5 | 0.00 | 0.00 | 0.00 | 42 | 1011.8 |
| 20260507143600 | 17 | 258 | 12.9 | 25.7 | 0.00 | 0.00 | 0.00 | 43 | 1011.8 |
| 20260507143113 | 17 | 231 | 14.5 | 24.1 | 0.00 | 0.00 | 0.00 | 44 | 1011.7 |
| 20260507142558 | 17 | 230 | 12.9 | 24.1 | 0.00 | 0.00 | 0.00 | 45 | 1011.7 |
| 20260507142058 | 16 | 246 | 14.5 | 24.1 | 0.00 | 0.00 | 0.00 | 45 | 1011.7 |
| 20260507141619 | 16 | 242 | 12.9 | 29.0 | 0.00 | 0.00 | 0.00 | 45 | 1011.7 |
| 20260507141059 | 16 | 267 | 16.1 | 29.0 | 0.00 | 0.00 | 0.00 | 45 | 1011.6 |
| 20260507140558 | 16 | 263 | 14.5 | 22.5 | 0.00 | 0.00 | 0.00 | 45 | 1011.6 |
| 20260507140109 | 16 | 234 | 12.9 | 22.5 | 0.00 | 0.00 | 0.00 | 50 | 1011.7 |
| 20260507135600 | 16 | 224 | 9.7 | 29.0 | 0.00 | 0.00 | 0.00 | 46 | 1011.6 |
| 20260507135057 | 16 | 250 | 16.1 | 29.0 | 0.00 | 0.00 | 0.00 | 47 | 1011.6 |
| 20260507134607 | 16 | 236 | 14.5 | 27.4 | 0.00 | 0.00 | 0.00 | 47 | 1011.5 |
| 20260507134056 | 16 | 259 | 16.1 | 27.4 | 0.00 | 0.00 | 0.00 | 48 | 1011.4 |
| 20260507133556 | 16 | 267 | 16.1 | 29.0 | 0.00 | 0.00 | 0.00 | 47 | 1011.4 |
| 20260507133055 | 16 | 248 | 17.7 | 29.0 | 0.00 | 0.00 | 0.00 | 47 | 1011.4 |
| 20260507132554 | 16 | 240 | 19.3 | 27.4 | 0.00 | 0.00 | 0.00 | 47 | 1011.3 |
| 20260507132053 | 16 | 250 | 11.3 | 29.0 | 0.00 | 0.00 | 0.00 | 47 | 1011.2 |
| 20260507131553 | 16 | 262 | 14.5 | 29.0 | 0.00 | 0.00 | 0.00 | 47 | 1011.2 |
| 20260507131052 | 16 | 211 | 11.3 | 19.3 | 0.00 | 0.00 | 0.00 | 48 | 1011.2 |
| 20260507130551 | 15 | 203 | 11.3 | 20.9 | 0.00 | 0.00 | 0.00 | 48 | 1011.2 |
| 20260507130050 | 15 | 225 | 11.3 | 19.3 | 0.00 | 0.00 | 0.00 | 48 | 1011.2 |
| 20260507125550 | 15 | 225 | 6.4 | 12.9 | 0.00 | 0.00 | 0.00 | 48 | 1011.1 |
| 20260507125051 | 16 | 212 | 4.8 | 11.3 | 0.00 | 0.00 | 0.00 | 48 | 1011.2 |
| 20260507124547 | 16 | 227 | 4.8 | 11.3 | 0.00 | 0.00 | 0.00 | 48 | 1011.2 |
| 20260507124047 | 16 | 234 | 3.2 | 11.3 | 0.00 | 0.00 | 0.00 | 47 | 1011.3 |
| 20260507123547 | 16 | 276 | 3.2 | 8.0 | 0.00 | 0.00 | 0.00 | 46 | 1011.3 |
| 20260507123048 | 16 | 235 | 1.6 | 12.9 | 0.00 | 0.00 | 0.00 | 45 | 1011.3 |
| 20260507122546 | 16 | 225 | 4.8 | 12.9 | 0.00 | 0.00 | 0.00 | 45 | 1011.4 |
| 20260507122047 | 16 | 264 | 6.4 | 16.1 | 0.00 | 0.00 | 0.00 | 45 | 1011.4 |
| 20260507121545 | 16 | 237 | 6.4 | 16.1 | 0.00 | 0.00 | 0.00 | 43 | 1011.4 |
| 20260507121044 | 16 | 225 | 4.8 | 11.3 | 0.00 | 0.00 | 0.00 | 45 | 1011.4 |
| 20260507120544 | 16 | 259 | 6.4 | 16.1 | 0.00 | 0.00 | 0.00 | 45 | 1011.5 |
| 20260507120047 | 16 | 258 | 8.0 | 16.1 | 0.00 | 0.00 | 0.00 | 47 | 1011.5 |
| 20260507115544 | 16 | 259 | 6.4 | 14.5 | 0.00 | 0.00 | 0.00 | 46 | 1011.5 |
| 20260507115044 | 16 | 269 | 9.7 | 16.1 | 0.00 | 0.00 | 0.00 | 46 | 1011.5 |
| 20260507114551 | 16 | 283 | 4.8 | 11.3 | 0.00 | 0.00 | 0.00 | 47 | 1011.5 |
| 20260507114045 | 16 | 264 | 6.4 | 11.3 | 0.00 | 0.00 | 0.00 | 47 | 1011.5 |
| 20260507113542 | 16 | 267 | 6.4 | 11.3 | 0.00 | 0.00 | 0.00 | 47 | 1011.6 |
| 20260507113043 | 16 | 256 | 4.8 | 11.3 | 0.00 | 0.00 | 0.00 | 47 | 1011.5 |
| 20260507112541 | 16 | 268 | 4.8 | 11.3 | 0.00 | 0.00 | 0.00 | 45 | 1011.7 |
| 20260507112041 | 16 | 259 | 3.2 | 8.0 | 0.00 | 0.00 | 0.00 | 43 | 1011.6 |
| 20260507111552 | 16 | 285 | 1.6 | 6.4 | 0.00 | 0.00 | 0.00 | 40 | 1011.6 |
| 20260507111039 | 16 | 277 | 3.2 | 6.4 | 0.00 | 0.00 | 0.00 | 40 | 1011.6 |
| 20260507110539 | 16 | 279 | 3.2 | 6.4 | 0.00 | 0.00 | 0.00 | 40 | 1011.7 |
| 20260507110139 | 16 | 279 | 1.6 | 12.9 | 0.00 | 0.00 | 0.00 | 40 | 1011.7 |
| 20260507105537 | 16 | 260 | 6.4 | 12.9 | 0.00 | 0.00 | 0.00 | 40 | 1011.8 |
| 20260507105037 | 16 | 267 | 4.8 | 8.0 | 0.00 | 0.00 | 0.00 | 40 | 1011.8 |
| 20260507104537 | 16 | 254 | 4.8 | 9.7 | 0.00 | 0.00 | 0.00 | 41 | 1011.8 |
| 20260507104039 | 16 | 261 | 3.2 | 9.7 | 0.00 | 0.00 | 0.00 | 41 | 1011.7 |
| 20260507103536 | 16 | 242 | 6.4 | 9.7 | 0.00 | 0.00 | 0.00 | 40 | 1011.8 |
| 20260507103036 | 16 | 257 | 4.8 | 8.0 | 0.00 | 0.00 | 0.00 | 41 | 1011.8 |
| 20260507102534 | 17 | 267 | 4.8 | 8.0 | 0.00 | 0.00 | 0.00 | 42 | 1011.7 |
| 20260507102034 | 17 | 261 | 3.2 | 14.5 | 0.00 | 0.00 | 0.00 | 42 | 1011.7 |
| 20260507101533 | 17 | 287 | 8.0 | 16.1 | 0.00 | 0.00 | 0.00 | 42 | 1011.8 |
| 20260507101034 | 17 | 279 | 8.0 | 16.1 | 0.00 | 0.00 | 0.00 | 43 | 1011.8 |
| 20260507100532 | 17 | 278 | 9.7 | 16.1 | 0.00 | 0.00 | 0.00 | 42 | 1011.8 |
| 20260507100034 | 17 | 279 | 9.7 | 16.1 | 0.00 | 0.00 | 0.00 | 44 | 1011.8 |
| 20260507095531 | 17 | 285 | 8.0 | 14.5 | 0.00 | 0.00 | 0.00 | 44 | 1011.8 |
| 20260507095033 | 17 | 281 | 4.8 | 14.5 | 0.00 | 0.00 | 0.00 | 39 | 1011.8 |
| 20260507094529 | 17 | 298 | 4.8 | 14.5 | 0.00 | 0.00 | 0.00 | 41 | 1011.9 |
| 20260507094031 | 17 | 23 | 3.2 | 9.7 | 0.00 | 0.00 | 0.00 | 38 | 1011.9 |
| 20260507093527 | 17 | 333 | 3.2 | 9.7 | 0.00 | 0.00 | 0.00 | 39 | 1011.9 |
| 20260507093034 | 17 | 306 | 4.8 | 12.9 | 0.00 | 0.00 | 0.00 | 42 | 1011.9 |
| 20260507092526 | 18 | 328 | 3.2 | 12.9 | 0.00 | 0.00 | 0.00 | 39 | 1011.9 |
| 20260507092025 | 18 | 307 | 6.4 | 14.5 | 0.00 | 0.00 | 0.00 | 42 | 1011.9 |
| 20260507091525 | 18 | 302 | 8.0 | 14.5 | 0.00 | 0.00 | 0.00 | 42 | 1012.0 |
| 20260507091024 | 18 | 294 | 4.8 | 12.9 | 0.00 | 0.00 | 0.00 | 42 | 1011.9 |
| 20260507090522 | 18 | 290 | 1.6 | 14.5 | 0.00 | 0.00 | 0.00 | 41 | 1012.0 |
| 20260507090022 | 18 | 261 | 6.4 | 17.7 | 0.00 | 0.00 | 0.00 | 40 | 1011.9 |
| 20260507085521 | 18 | 278 | 8.0 | 17.7 | 0.00 | 0.00 | 0.00 | 40 | 1012.0 |
| 20260507085022 | 18 | 273 | 11.3 | 17.7 | 0.00 | 0.00 | 0.00 | 40 | 1012.1 |
| 20260507084521 | 18 | 251 | 9.7 | 17.7 | 0.00 | 0.00 | 0.00 | 38 | 1012.1 |
| 20260507084025 | 18 | 257 | 11.3 | 17.7 | 0.00 | 0.00 | 0.00 | 39 | 1012.0 |
| 20260507083519 | 18 | 246 | 8.0 | 19.3 | 0.00 | 0.00 | 0.00 | 40 | 1012.1 |
| 20260507083021 | 19 | 246 | 11.3 | 25.7 | 0.00 | 0.00 | 0.00 | 39 | 1012.1 |
| 20260507082516 | 19 | 258 | 11.3 | 25.7 | 0.00 | 0.00 | 0.00 | 38 | 1012.2 |
| 20260507082016 | 19 | 270 | 12.9 | 25.7 | 0.00 | 0.00 | 0.00 | 38 | 1012.2 |
| 20260507081528 | 19 | 265 | 11.3 | 22.5 | 0.00 | 0.00 | 0.00 | 37 | 1012.2 |
| 20260507081015 | 19 | 263 | 9.7 | 20.9 | 0.00 | 0.00 | 0.00 | 38 | 1012.1 |
| 20260507080520 | 19 | 261 | 14.5 | 20.9 | 0.00 | 0.00 | 0.00 | 38 | 1012.1 |
| 20260507080019 | 20 | 237 | 8.0 | 17.7 | 0.00 | 0.00 | 0.00 | 38 | 1012.1 |
| 20260507075513 | 20 | 249 | 11.3 | 17.7 | 0.00 | 0.00 | 0.00 | 37 | 1012.1 |
| 20260507075012 | 20 | 244 | 9.7 | 24.1 | 0.00 | 0.00 | 0.00 | 37 | 1012.1 |
| 20260507074511 | 20 | 267 | 11.3 | 24.1 | 0.00 | 0.00 | 0.00 | 37 | 1012.1 |
| 20260507074014 | 19 | 284 | 8.0 | 16.1 | 0.00 | 0.00 | 0.00 | 38 | 1012.1 |
| 20260507073511 | 20 | 227 | 9.7 | 16.1 | 0.00 | 0.00 | 0.00 | 38 | 1012.1 |
| 20260507073011 | 20 | 279 | 9.7 | 19.3 | 0.00 | 0.00 | 0.00 | 38 | 1012.0 |
| 20260507072511 | 20 | 230 | 11.3 | 22.5 | 0.00 | 0.00 | 0.00 | 38 | 1012.1 |
| 20260507072010 | 20 | 249 | 11.3 | 22.5 | 0.00 | 0.00 | 0.00 | 38 | 1012.1 |
| 20260507071509 | 20 | 215 | 12.9 | 22.5 | 0.00 | 0.00 | 0.00 | 38 | 1012.0 |
| 20260507071008 | 19 | 243 | 8.0 | 17.7 | 0.00 | 0.00 | 0.00 | 38 | 1012.1 |
| 20260507070512 | 19 | 247 | 8.0 | 17.7 | 0.00 | 0.00 | 0.00 | 38 | 1012.0 |
| 20260507070010 | 20 | 252 | 9.7 | 17.7 | 0.00 | 0.00 | 0.00 | 37 | 1012.1 |
| 20260507065509 | 20 | 240 | 6.4 | 16.1 | 0.00 | 0.00 | 0.00 | 36 | 1012.1 |
| 20260507065005 | 20 | 214 | 8.0 | 12.9 | 0.00 | 0.00 | 0.00 | 34 | 1012.1 |
| 20260507064505 | 20 | 242 | 8.0 | 16.1 | 0.00 | 0.00 | 0.00 | 33 | 1012.0 |
| 20260507064005 | 20 | 228 | 8.0 | 20.9 | 0.00 | 0.00 | 0.00 | 32 | 1012.1 |
| 20260507063505 | 20 | 258 | 11.3 | 20.9 | 0.00 | 0.00 | 0.00 | 32 | 1012.1 |
| 20260507063004 | 20 | 283 | 8.0 | 16.1 | 0.00 | 0.00 | 0.00 | 29 | 1012.1 |
| 20260507062504 | 20 | 265 | 6.4 | 17.7 | 0.00 | 0.00 | 0.00 | 29 | 1012.1 |
| 20260507062006 | 20 | 266 | 11.3 | 17.7 | 0.00 | 0.00 | 0.00 | 28 | 1012.1 |
| 20260507061507 | 20 | 233 | 4.8 | 11.3 | 0.00 | 0.00 | 0.00 | 27 | 1012.1 |
| 20260507061004 | 20 | 235 | 6.4 | 12.9 | 0.00 | 0.00 | 0.00 | 25 | 1012.1 |
| 20260507060504 | 20 | 211 | 6.4 | 12.9 | 0.00 | 0.00 | 0.00 | 24 | 1012.1 |
| 20260507060004 | 20 | 229 | 4.8 | 12.9 | 0.00 | 0.00 | 0.00 | 22 | 1012.1 |
| 20260507055504 | 20 | 225 | 4.8 | 14.5 | 0.00 | 0.00 | 0.00 | 21 | 1012.2 |
| 20260507055003 | 20 | 221 | 4.8 | 14.5 | 0.00 | 0.00 | 0.00 | 21 | 1012.2 |
| 20260507054504 | 20 | 244 | 4.8 | 12.9 | 0.00 | 0.00 | 0.00 | 21 | 1012.1 |
| 20260507054004 | 19 | 235 | 6.4 | 14.5 | 0.00 | 0.00 | 0.00 | 21 | 1012.1 |
| 20260507053502 | 17 | 199 | 8.0 | 14.5 | 0.00 | 0.00 | 0.00 | 23 | 1012.2 |
| 20260507053003 | 17 | 246 | 1.6 | 4.8 | 0.00 | 0.00 | 0.00 | 23 | 1012.2 |
| 20260507052502 | 17 | 249 | 0.0 | 1.6 | 0.00 | 0.00 | 0.00 | 23 | 1012.1 |
| 20260507052002 | 17 | 249 | 0.0 | 1.6 | 0.00 | 0.00 | 0.00 | 23 | 1012.1 |
| 20260507051502 | 18 | 249 | 0.0 | 3.2 | 0.00 | 0.00 | 0.00 | 22 | 1012.1 |
| 20260507051001 | 18 | 249 | 0.0 | 4.8 | 0.00 | 0.00 | 0.00 | 21 | 1012.1 |
| 20260507050501 | 18 | 249 | 1.6 | 4.8 | 0.00 | 0.00 | 0.00 | 21 | 1012.1 |
| 20260507050007 | 18 | 249 | 0.0 | 6.4 | 0.00 | 0.00 | 0.00 | 21 | 1012.0 |
| 20260507045501 | 18 | 248 | 3.2 | 6.4 | 0.00 | 0.00 | 0.00 | 21 | 1012.0 |
| 20260507045002 | 18 | 194 | 0.0 | 3.2 | 0.00 | 0.00 | 0.00 | 22 | 1012.0 |
| 20260507044602 | 18 | 192 | 0.0 | 3.2 | 0.00 | 0.00 | 0.00 | 21 | 1012.0 |
| 20260507044100 | 18 | 192 | 0.0 | 3.2 | 0.00 | 0.00 | 0.00 | 21 | 1012.0 |
| 20260507043600 | 19 | 192 | 0.0 | 3.2 | 0.00 | 0.00 | 0.00 | 20 | 1011.9 |
| 20260507043103 | 19 | 192 | 0.0 | 3.2 | 0.00 | 0.00 | 0.00 | 19 | 1011.8 |
| 20260507042559 | 20 | 192 | 1.6 | 4.8 | 0.00 | 0.00 | 0.00 | 19 | 1011.8 |
| 20260507042100 | 20 | 194 | 1.6 | 4.8 | 0.00 | 0.00 | 0.00 | 19 | 1011.7 |
| 20260507041612 | 20 | 195 | 1.6 | 4.8 | 0.00 | 0.00 | 0.00 | 19 | 1011.7 |
| 20260507041100 | 20 | 202 | 1.6 | 6.4 | 0.00 | 0.00 | 0.00 | 19 | 1011.7 |
| 20260507040600 | 20 | 202 | 1.6 | 6.4 | 0.00 | 0.00 | 0.00 | 18 | 1011.7 |
| 20260507040100 | 20 | 216 | 1.6 | 3.2 | 0.00 | 0.00 | 0.00 | 18 | 1011.7 |
| 20260507035559 | 20 | 226 | 1.6 | 3.2 | 0.00 | 0.00 | 0.00 | 19 | 1011.6 |
| 20260507035059 | 20 | 219 | 1.6 | 4.8 | 0.00 | 0.00 | 0.00 | 18 | 1011.7 |
| 20260507034610 | 20 | 261 | 3.2 | 6.4 | 0.00 | 0.00 | 0.00 | 18 | 1011.6 |
| 20260507034058 | 21 | 260 | 3.2 | 6.4 | 0.00 | 0.00 | 0.00 | 17 | 1011.5 |
| 20260507033602 | 21 | 259 | 3.2 | 9.7 | 0.00 | 0.00 | 0.00 | 17 | 1011.5 |
| 20260507033058 | 22 | 265 | 3.2 | 9.7 | 0.00 | 0.00 | 0.00 | 16 | 1011.4 |
| 20260507032558 | 22 | 262 | 4.8 | 8.0 | 0.00 | 0.00 | 0.00 | 15 | 1011.4 |
| 20260507032057 | 22 | 283 | 4.8 | 9.7 | 0.00 | 0.00 | 0.00 | 15 | 1011.5 |
| 20260507031600 | 22 | 260 | 3.2 | 11.3 | 0.00 | 0.00 | 0.00 | 15 | 1011.4 |
| 20260507031059 | 22 | 279 | 4.8 | 11.3 | 0.00 | 0.00 | 0.00 | 15 | 1011.5 |
| 20260507030558 | 22 | 271 | 6.4 | 11.3 | 0.00 | 0.00 | 0.00 | 15 | 1011.5 |
| 20260507025556 | 22 | 269 | 4.8 | 11.3 | 0.00 | 0.00 | 0.00 | 15 | 1011.4 |
| 20260507025057 | 23 | 277 | 4.8 | 9.7 | 0.00 | 0.00 | 0.00 | 15 | 1011.4 |
| 20260507024601 | 23 | 280 | 3.2 | 11.3 | 0.00 | 0.00 | 0.00 | 15 | 1011.3 |
| 20260507024055 | 23 | 296 | 3.2 | 12.9 | 0.00 | 0.00 | 0.00 | 15 | 1011.3 |
| 20260507023556 | 23 | 301 | 3.2 | 12.9 | 0.00 | 0.00 | 0.00 | 15 | 1011.3 |
| 20260507023111 | 23 | 283 | 4.8 | 16.1 | 0.00 | 0.00 | 0.00 | 15 | 1011.3 |
| 20260507022556 | 24 | 339 | 6.4 | 16.1 | 0.00 | 0.00 | 0.00 | 14 | 1011.3 |
| 20260507022056 | 24 | 301 | 6.4 | 16.1 | 0.00 | 0.00 | 0.00 | 14 | 1011.3 |
| 20260507021557 | 25 | 343 | 6.4 | 17.7 | 0.00 | 0.00 | 0.00 | 13 | 1011.3 |
| 20260507021055 | 25 | 314 | 9.7 | 17.7 | 0.00 | 0.00 | 0.00 | 13 | 1011.3 |
| 20260507020554 | 25 | 279 | 8.0 | 17.7 | 0.00 | 0.00 | 0.00 | 13 | 1011.3 |
| 20260507020055 | 25 | 315 | 8.0 | 17.7 | 0.00 | 0.00 | 0.00 | 13 | 1011.3 |
| 20260507015554 | 26 | 350 | 8.0 | 17.7 | 0.00 | 0.00 | 0.00 | 12 | 1011.3 |
| 20260507015055 | 26 | 355 | 8.0 | 17.7 | 0.00 | 0.00 | 0.00 | 12 | 1011.3 |
| 20260507014606 | 26 | 321 | 8.0 | 17.7 | 0.00 | 0.00 | 0.00 | 12 | 1011.4 |
| 20260507014053 | 26 | 331 | 6.4 | 19.3 | 0.00 | 0.00 | 0.00 | 12 | 1011.3 |
| 20260507013552 | 26 | 9 | 9.7 | 19.3 | 0.00 | 0.00 | 0.00 | 12 | 1011.4 |
| 20260507013111 | 26 | 343 | 6.4 | 19.3 | 0.00 | 0.00 | 0.00 | 12 | 1011.3 |
| 20260507012552 | 26 | 342 | 12.9 | 19.3 | 0.00 | 0.00 | 0.00 | 11 | 1011.3 |
| 20260507012052 | 27 | 35 | 9.7 | 17.7 | 0.00 | 0.00 | 0.00 | 11 | 1011.3 |
| 20260507011552 | 27 | 351 | 8.0 | 17.7 | 0.00 | 0.00 | 0.00 | 11 | 1011.3 |
| 20260507011051 | 27 | 5 | 4.8 | 14.5 | 0.00 | 0.00 | 0.00 | 10 | 1011.3 |
| 20260507010552 | 27 | 346 | 6.4 | 16.1 | 0.00 | 0.00 | 0.00 | 9 | 1011.4 |
| 20260507010051 | 27 | 360 | 6.4 | 16.1 | 0.00 | 0.00 | 0.00 | 9 | 1011.3 |
| 20260507005550 | 27 | 327 | 3.2 | 12.9 | 0.00 | 0.00 | 0.00 | 9 | 1011.3 |
| 20260507005051 | 27 | 350 | 4.8 | 16.1 | 0.00 | 0.00 | 0.00 | 9 | 1011.3 |